Location: Westminster
(33.3626°N, 96.4619°W)
Time: 21:12:54
(UTC+00:00)

Cosmos 1763 Rocket - Pass Details

Date: 10 July 2022
Orbit: 732 x 780 km, 74.0° (Epoch: 13 August)

Event Time Altitude Azimuth Distance (km) Brightness Sun altitude
Exits shadow 05:41:20 25° 43° (NE) 1,514 5.2 -33.1°
Drops below altitude 10° 05:43:40 10° 30° (NNE) 2,320 6.5 -33.3°
Sets 05:46:08 0° 24° (NNE) 3,256 7.4 -33.4°
